Weather History for Coffeyville, KS

Change the Weather History Date:

Sunday, November 24, 2013

  Actual Average Record
Temperature  
Mean Temperature 24 °F -  
Max Temperature 32 °F 53 °F 73 °F (2006)
Min Temperature 19 °F 33 °F 19 °F (2013)
Degree Days  
Heating Degree Days 40    
Moisture  
Dew Point 13 °F    
Average Humidity 57    
Maximum Humidity 71    
Minimum Humidity 43    
Precipitation  
Precipitation 0.00 in - - ()
Sea Level Pressure  
Sea Level Pressure 30.61 in    
Wind  
Wind Speed 8 mph (East)    
Max Wind Speed 12 mph    
Max Gust Speed -    
Visibility 10 miles    
Events      
Averages and records for this station are not official NWS values.
T = Trace of Precipitation, MM = Missing Value Source: NWS Daily Summary

Daily Weather History Graph

Daily Weather History Graph

Search for Another Location

Airport:

Trip Planner

Search our weather history database for the weather conditions in past years. The results will help you decide how hot, cold, wet, or windy it might be!

Date:

Astronomy

Nov. 24, 2013 Rise Set
Actual Time 7:10 AM CST 5:07 PM CST
Civil Twilight 6:42 AM CST 5:35 PM CST
Nautical Twilight 6:10 AM CST 6:07 PM CST
Astronomical Twilight 5:39 AM CST 6:38 PM CST
Moon 11:29 PM CST (11/24) 12:02 PM CST (11/24)
Length of Visible Light 10h 53m
Length of Day
9h 56m
Waning Gibbous, 60% of the Moon is Illuminated
Nov 24
Waning Gibbous
Nov 25
Last Quarter
Dec 2
New
Dec 9
First Quarter
Dec 17
Full

Hourly Weather History & Observations

Time (CST) Temp. Windchill Dew Point Humidity Pressure Visibility Wind Dir Wind Speed Gust Speed Precip Events Conditions
12:52 AM 23.0 °F 13.1 °F 12.0 °F 63% 30.76 in 10.0 mi NE 9.2 mph - N/A   Clear
1:52 AM 21.9 °F 10.4 °F 12.0 °F 66% 30.74 in 10.0 mi NE 11.5 mph - N/A   Clear
2:52 AM 21.0 °F 10.6 °F 10.9 °F 65% 30.75 in 10.0 mi NNE 9.2 mph - N/A   Clear
3:52 AM 21.0 °F 10.6 °F 12.0 °F 68% 30.74 in 10.0 mi NNE 9.2 mph - N/A   Clear
4:52 AM 19.9 °F 10.1 °F 12.0 °F 71% 30.74 in 10.0 mi NE 8.1 mph - N/A   Clear
5:52 AM 19.9 °F 11.1 °F 10.9 °F 68% 30.75 in 10.0 mi NE 6.9 mph - N/A   Clear
6:52 AM 19.9 °F 12.1 °F 12.0 °F 71% 30.74 in 10.0 mi NE 5.8 mph - N/A   Clear
7:52 AM 19.9 °F 10.1 °F 10.9 °F 68% 30.75 in 10.0 mi NE 8.1 mph - N/A   Clear
8:52 AM 21.0 °F 10.6 °F 12.0 °F 68% 30.73 in 10.0 mi ENE 9.2 mph - N/A   Clear
9:52 AM 23.0 °F 15.8 °F 12.0 °F 63% 30.72 in 10.0 mi ENE 5.8 mph - N/A   Clear
10:52 AM 24.1 °F 15.2 °F 12.9 °F 62% 30.69 in 10.0 mi ENE 8.1 mph - N/A   Clear
11:52 AM 26.1 °F - 12.9 °F 58% 30.65 in 10.0 mi North - - N/A   Clear
12:52 PM 28.0 °F 22.8 °F 12.0 °F 51% 30.60 in 10.0 mi ESE 4.6 mph - N/A   Mostly Cloudy
1:52 PM 28.9 °F 22.8 °F 10.9 °F 47% 30.57 in 10.0 mi ENE 5.8 mph - N/A   Overcast
2:52 PM 30.0 °F 25.2 °F 10.0 °F 43% 30.55 in 10.0 mi ESE 4.6 mph - N/A   Mostly Cloudy
3:52 PM 30.9 °F 26.2 °F 12.0 °F 46% 30.55 in 10.0 mi ESE 4.6 mph - N/A   Overcast
4:52 PM 30.9 °F 27.5 °F 12.0 °F 46% 30.52 in 10.0 mi SE 3.5 mph - N/A   Overcast
5:52 PM 30.9 °F 27.5 °F 12.0 °F 46% 30.51 in 10.0 mi South 3.5 mph - N/A   Overcast
6:52 PM 30.9 °F 26.2 °F 12.9 °F 47% 30.47 in 10.0 mi SE 4.6 mph - N/A   Overcast
7:52 PM 30.9 °F 25.2 °F 12.9 °F 47% 30.44 in 10.0 mi SE 5.8 mph - N/A   Overcast
8:52 PM 30.9 °F 25.2 °F 14.0 °F 50% 30.42 in 10.0 mi SE 5.8 mph - N/A   Overcast
9:52 PM 30.9 °F 25.2 °F 16.0 °F 54% 30.41 in 10.0 mi South 5.8 mph - N/A   Overcast
10:52 PM 30.9 °F 25.2 °F 17.1 °F 57% 30.38 in 10.0 mi SE 5.8 mph - N/A   Overcast
11:52 PM 32.0 °F 27.5 °F 17.1 °F 54% 30.37 in 10.0 mi SSE 4.6 mph - N/A   Overcast